Voltar ao catálogo

PERUSAT 1

AtivoCiênciaSSO
NORAD 41770·PAYLOAD·🇵🇪 Peru

Lançado Sep 16, 2016 de Guiana Space Centre

Loading…

Próximas Passagens (próximas 24 horas)

TLE

AtualizadoSource: Space-Track

Época: Sep 14, 2026, 14:59 UTC

1 41770U 16058A   26257.62485660  .00000232  00000-0  59661-4 0  9996
2 41770  98.1956 330.0863 0001403  82.2723 277.8635 14.58558088532138

Acompanhe PERUSAT 1 em tempo real com AllMySat

Download on the App Store